contact:dominique.lefevre@mio.osupytheas.fr, maurice.libes@osupytheas.fr, didier.mallarino@osupytheas.fr
Project:EMSO http://www.emso-fr.org/EMSO-France
Depth: 2436.0 m
Title:EMSO Ligure Ouest : Data MII capteur AQUADOPP
Date,Latitude,Longitude,X_East,Y_North,Z_Up,Amplitude_X,Amplitude_Y,Amplitude_Z,Batterie,SoundSpeed,Heading,Pitch,Roll,Pressure,TIS,Speed,Direction
, degrees North, degrees East, m.s-1, m.s-1,m.s-1, 1, 1, 1, Volt, m.s-1, degree, degree, degree, dbar, degree_C, m.s-1, degree
2022-12-11T00:04:03,42.805,6.029,-0.016,0.01,0.006,100.0,101.0,100.0,13.3,1505.2,329.0,-0.8,1.8,2471.09,13.28,0.018,302.0
2022-12-11T00:07:03,42.805,6.029,-0.007,0.0,-0.034,100.0,99.0,101.0,13.4,1505.2,327.0,-0.8,1.8,2471.085,13.28,0.007,270.0
2022-12-11T00:10:03,42.805,6.029,-0.019,-0.013,-0.05,100.0,100.0,101.0,13.4,1505.2,321.5,-0.7,1.8,2471.07,13.28,0.023,235.6
2022-12-11T00:13:03,42.805,6.029,-0.016,0.001,-0.026,101.0,98.0,100.0,13.4,1505.2,317.4,-0.7,1.8,2471.052,13.28,0.016,273.6
2022-12-11T00:16:03,42.805,6.029,-0.057,-0.001,-0.066,99.0,100.0,100.0,13.4,1505.2,315.0,-0.8,1.8,2471.072,13.29,0.057,269.0
2022-12-11T00:19:03,42.805,6.029,-0.043,0.019,-0.014,101.0,101.0,101.0,13.4,1505.2,323.2,-0.8,1.8,2471.033,13.29,0.047,293.8
2022-12-11T00:22:03,42.805,6.029,-0.034,0.024,-0.033,100.0,100.0,100.0,13.4,1505.2,336.6,-0.7,1.8,2471.053,13.29,0.041,305.2
2022-12-11T00:25:03,42.805,6.029,-0.019,-0.019,-0.031,101.0,100.0,100.0,13.4,1505.2,316.4,-0.8,1.8,2471.03,13.29,0.026,225.0
2022-12-11T00:28:03,42.805,6.029,-0.024,-0.001,-0.015,101.0,101.0,100.0,13.3,1505.2,316.4,-0.8,1.8,2471.021,13.29,0.024,267.6
2022-12-11T00:31:03,42.805,6.029,-0.032,0.006,-0.018,101.0,101.0,100.0,13.3,1505.2,319.2,-0.8,1.9,2471.059,13.29,0.032,280.6
2022-12-11T00:34:03,42.805,6.029,-0.033,-0.004,-0.043,101.0,101.0,100.0,13.3,1505.2,327.4,-0.7,1.8,2471.042,13.29,0.033,263.1
2022-12-11T00:37:03,42.805,6.029,-0.058,0.03,-0.025,101.0,101.0,101.0,13.4,1505.2,327.9,-0.7,1.8,2471.024,13.29,0.065,297.4
2022-12-11T00:40:03,42.805,6.029,-0.03,0.001,0.0,101.0,101.0,100.0,13.4,1505.2,318.4,-0.8,1.8,2471.031,13.29,0.03,271.9
2022-12-11T00:43:03,42.805,6.029,-0.049,0.024,-0.051,101.0,100.0,100.0,13.3,1505.2,331.1,-0.8,1.8,2471.01,13.29,0.054,296.1
2022-12-11T00:46:03,42.805,6.029,-0.047,0.012,-0.047,101.0,100.0,101.0,13.3,1505.2,315.9,-0.8,1.8,2471.064,13.29,0.048,284.3
2022-12-11T00:49:03,42.805,6.029,-0.026,0.01,-0.043,101.0,100.0,100.0,13.4,1505.2,326.7,-0.8,1.9,2471.066,13.29,0.027,291.0
2022-12-11T00:52:03,42.805,6.029,-0.029,0.02,-0.019,100.0,100.0,100.0,13.4,1505.2,335.1,-0.8,1.8,2471.023,13.29,0.035,304.6
2022-12-11T00:55:03,42.805,6.029,-0.026,0.008,-0.03,100.0,100.0,100.0,13.3,1505.2,317.9,-0.8,1.8,2471.039,13.29,0.027,287.1
2022-12-11T00:58:03,42.805,6.029,-0.062,0.004,-0.066,101.0,100.0,100.0,13.4,1505.2,319.9,-0.8,1.8,2470.988,13.29,0.062,273.7
2022-12-11T01:04:03,42.805,6.029,-0.022,-0.001,-0.055,102.0,101.0,102.0,13.3,1505.2,317.5,-0.8,1.8,2471.075,13.28,0.022,267.4
2022-12-11T01:07:03,42.805,6.029,-0.041,0.006,-0.048,101.0,103.0,101.0,13.3,1505.2,336.2,-0.8,1.8,2471.106,13.28,0.041,278.3
2022-12-11T01:10:03,42.805,6.029,-0.056,0.011,-0.043,100.0,101.0,100.0,13.4,1505.2,325.3,-0.8,1.8,2471.088,13.28,0.057,281.1
2022-12-11T01:13:03,42.805,6.029,-0.037,0.002,-0.038,100.0,101.0,100.0,13.4,1505.2,326.3,-0.8,1.8,2471.05,13.28,0.037,273.1
2022-12-11T01:16:03,42.805,6.029,-0.035,0.0,-0.036,101.0,100.0,101.0,13.4,1505.2,329.3,-0.8,1.8,2471.049,13.29,0.035,270.0
2022-12-11T01:19:03,42.805,6.029,-0.037,-0.004,-0.05,101.0,100.0,101.0,13.4,1505.2,324.9,-0.8,1.8,2471.057,13.29,0.037,263.8
2022-12-11T01:22:03,42.805,6.029,-0.014,0.029,0.032,100.0,100.0,100.0,13.3,1505.2,335.2,-0.7,1.8,2471.017,13.29,0.032,334.2
2022-12-11T01:25:03,42.805,6.029,-0.046,0.043,-0.006,100.0,101.0,100.0,13.4,1505.2,336.6,-0.8,1.8,2471.022,13.29,0.062,313.1
2022-12-11T01:28:03,42.805,6.029,-0.012,0.007,-0.038,101.0,100.0,100.0,13.4,1505.2,320.6,-0.8,1.8,2471.018,13.29,0.013,300.3
2022-12-11T01:31:03,42.805,6.029,-0.031,-0.001,-0.059,100.0,100.0,101.0,13.4,1505.2,329.8,-0.8,1.8,2471.022,13.29,0.031,268.2
2022-12-11T01:34:03,42.805,6.029,0.001,-0.01,-0.037,100.0,101.0,100.0,13.3,1505.2,317.0,-0.7,1.8,2471.031,13.29,0.01,174.3
2022-12-11T01:37:03,42.805,6.029,-0.047,0.001,-0.052,101.0,100.0,100.0,13.4,1505.2,324.2,-0.7,1.8,2471.014,13.29,0.047,271.2
2022-12-11T01:40:03,42.805,6.029,-0.019,0.002,-0.023,100.0,101.0,100.0,13.4,1505.2,331.3,-0.7,1.8,2470.998,13.29,0.019,276.0
2022-12-11T01:43:03,42.805,6.029,-0.009,-0.001,-0.032,100.0,100.0,101.0,13.4,1505.2,319.5,-0.8,1.8,2471.028,13.29,0.009,263.7
2022-12-11T01:46:03,42.805,6.029,-0.025,0.018,-0.018,100.0,101.0,101.0,13.4,1505.2,333.8,-0.7,1.8,2470.996,13.29,0.03,305.8
2022-12-11T01:49:03,42.805,6.029,-0.046,0.008,-0.02,101.0,100.0,100.0,13.4,1505.2,327.4,-0.7,1.8,2471.006,13.29,0.046,279.9
2022-12-11T01:52:03,42.805,6.029,-0.026,0.018,-0.048,100.0,101.0,100.0,13.3,1505.2,331.0,-0.7,1.8,2471.052,13.29,0.031,304.7
2022-12-11T01:55:03,42.805,6.029,-0.022,-0.013,-0.069,101.0,100.0,101.0,13.4,1505.2,327.4,-0.8,1.8,2471.027,13.29,0.025,239.4
2022-12-11T01:58:03,42.805,6.029,-0.045,0.037,0.013,100.0,100.0,102.0,13.4,1505.2,325.9,-0.8,1.8,2471.002,13.29,0.058,309.4
2022-12-11T02:04:03,42.805,6.029,-0.029,0.014,-0.028,101.0,101.0,100.0,13.4,1505.2,328.0,-0.7,1.8,2471.01,13.28,0.032,295.8
2022-12-11T02:07:03,42.805,6.029,-0.059,0.019,-0.043,100.0,100.0,100.0,13.4,1505.2,318.9,-0.7,1.9,2471.023,13.28,0.061,287.8
2022-12-11T02:10:03,42.805,6.029,-0.018,-0.022,-0.055,100.0,101.0,100.0,13.4,1505.2,323.4,-0.7,1.8,2471.027,13.28,0.028,219.3
2022-12-11T02:13:03,42.805,6.029,-0.019,-0.013,-0.038,100.0,101.0,100.0,13.4,1505.2,318.8,-0.8,1.8,2471.04,13.29,0.023,235.6
2022-12-11T02:16:03,42.805,6.029,-0.015,0.016,0.001,100.0,100.0,100.0,13.4,1505.2,321.1,-0.7,1.8,2471.017,13.29,0.021,316.9
2022-12-11T02:19:03,42.805,6.029,-0.031,0.023,-0.005,100.0,100.0,100.0,13.4,1505.2,326.7,-0.8,1.8,2471.001,13.29,0.038,306.6
2022-12-11T02:22:03,42.805,6.029,0.013,0.005,-0.037,100.0,100.0,100.0,13.4,1505.2,330.0,-0.8,1.8,2471.034,13.29,0.013,69.0
2022-12-11T02:25:03,42.805,6.029,-0.022,0.0,-0.02,99.0,100.0,101.0,13.4,1505.2,323.5,-0.8,1.8,2470.965,13.29,0.022,270.0
2022-12-11T02:28:03,42.805,6.029,-0.047,0.002,-0.075,100.0,100.0,101.0,13.4,1505.2,320.6,-0.7,1.8,2470.992,13.29,0.047,272.4
2022-12-11T02:31:03,42.805,6.029,-0.046,0.034,-0.036,101.0,100.0,101.0,13.3,1505.2,335.6,-0.7,1.8,2471.004,13.29,0.057,306.5
2022-12-11T02:34:03,42.805,6.029,-0.018,-0.003,-0.05,100.0,100.0,100.0,13.4,1505.2,322.2,-0.8,1.8,2471.006,13.29,0.018,260.5
2022-12-11T02:37:03,42.805,6.029,-0.039,0.018,-0.01,101.0,100.0,100.0,13.3,1505.2,318.8,-0.8,1.8,2471.008,13.29,0.042,294.8
2022-12-11T02:40:03,42.805,6.029,-0.009,-0.001,-0.024,100.0,101.0,100.0,13.4,1505.2,334.5,-0.8,1.8,2471.031,13.29,0.009,263.7
2022-12-11T02:43:03,42.805,6.029,-0.017,0.024,-0.013,100.0,100.0,101.0,13.4,1505.2,334.4,-0.8,1.8,2470.997,13.29,0.029,324.7
2022-12-11T02:46:03,42.805,6.029,-0.044,0.016,-0.025,100.0,100.0,102.0,13.4,1505.2,337.0,-0.8,1.8,2470.979,13.29,0.046,290.0
2022-12-11T02:49:03,42.805,6.029,-0.037,0.008,-0.05,100.0,100.0,100.0,13.4,1505.2,323.4,-0.8,1.8,2471.012,13.29,0.037,282.2
2022-12-11T02:52:03,42.805,6.029,-0.055,-0.001,-0.037,102.0,100.0,100.0,13.4,1505.2,329.3,-0.8,1.8,2471.008,13.29,0.055,269.0
2022-12-11T02:55:03,42.805,6.029,-0.068,0.027,-0.013,101.0,100.0,100.0,13.4,1505.2,328.2,-0.7,1.8,2471.056,13.29,0.073,291.7
2022-12-11T02:58:03,42.805,6.029,-0.044,-0.003,-0.054,100.0,100.0,100.0,13.4,1505.2,316.0,-0.8,1.8,2470.996,13.29,0.044,266.1
2022-12-11T03:04:03,42.805,6.029,-0.039,0.006,-0.066,101.0,100.0,100.0,13.4,1505.2,325.6,-0.8,1.8,2471.045,13.28,0.039,278.7
2022-12-11T03:07:03,42.805,6.029,-0.032,0.013,-0.029,100.0,100.0,100.0,13.4,1505.2,331.9,-0.8,1.8,2471.038,13.28,0.034,292.1
2022-12-11T03:10:03,42.805,6.029,-0.016,-0.006,-0.053,102.0,100.0,100.0,13.3,1505.2,323.1,-0.8,1.8,2470.984,13.28,0.017,249.4
2022-12-11T03:13:03,42.805,6.029,-0.014,-0.005,-0.019,101.0,100.0,100.0,13.4,1505.2,316.5,-0.7,1.9,2471.009,13.29,0.014,250.4
2022-12-11T03:16:03,42.805,6.029,-0.031,0.004,-0.022,100.0,100.0,100.0,13.3,1505.2,334.5,-0.7,1.8,2471.032,13.29,0.031,277.3
2022-12-11T03:19:03,42.805,6.029,-0.018,0.005,-0.007,100.0,101.0,100.0,13.4,1505.2,319.0,-0.8,1.9,2471.03,13.29,0.018,285.5
2022-12-11T03:22:03,42.805,6.029,-0.038,0.012,-0.002,100.0,100.0,100.0,13.4,1505.2,316.5,-0.8,1.8,2470.982,13.29,0.039,287.5
2022-12-11T03:25:03,42.805,6.029,-0.027,-0.006,-0.056,101.0,100.0,101.0,13.3,1505.2,316.3,-0.8,1.8,2471.002,13.29,0.027,257.5
2022-12-11T03:28:03,42.805,6.029,-0.03,0.009,-0.011,100.0,100.0,100.0,13.3,1505.2,332.7,-0.8,1.8,2470.976,13.29,0.031,286.7
2022-12-11T03:31:03,42.805,6.029,-0.059,-0.004,-0.074,100.0,101.0,100.0,13.4,1505.2,321.2,-0.8,1.8,2470.999,13.29,0.059,266.1
2022-12-11T03:34:03,42.805,6.029,-0.003,0.016,0.013,101.0,100.0,100.0,13.3,1505.2,318.1,-0.8,1.8,2471.034,13.29,0.016,349.4
2022-12-11T03:37:03,42.805,6.029,-0.027,0.025,-0.012,101.0,101.0,100.0,13.4,1505.2,316.5,-0.8,1.8,2471.009,13.29,0.036,312.8
2022-12-11T03:40:03,42.805,6.029,-0.036,-0.012,-0.051,100.0,100.0,101.0,13.3,1505.2,318.3,-0.8,1.8,2470.996,13.29,0.037,251.6
2022-12-11T03:43:03,42.805,6.029,-0.018,0.022,-0.013,100.0,100.0,101.0,13.4,1505.2,328.6,-0.8,1.8,2471.036,13.29,0.028,320.7
2022-12-11T03:46:03,42.805,6.029,-0.064,0.005,-0.073,102.0,100.0,100.0,13.3,1505.2,324.2,-0.7,1.8,2471.013,13.29,0.064,274.5
2022-12-11T03:49:03,42.805,6.029,-0.019,0.019,0.016,102.0,101.0,101.0,13.4,1505.2,322.0,-0.8,1.8,2470.998,13.29,0.026,315.0
2022-12-11T03:52:03,42.805,6.029,-0.021,0.02,-0.008,101.0,100.0,100.0,13.4,1505.2,327.4,-0.8,1.8,2471.036,13.29,0.028,313.6
2022-12-11T03:55:03,42.805,6.029,-0.033,0.015,-0.032,101.0,100.0,101.0,13.3,1505.2,328.7,-0.8,1.9,2471.002,13.29,0.036,294.4
2022-12-11T03:58:03,42.805,6.029,-0.023,0.041,-0.013,101.0,100.0,100.0,13.4,1505.2,331.1,-0.7,1.8,2471.057,13.29,0.047,330.7
2022-12-11T04:04:03,42.805,6.029,-0.025,0.027,-0.017,100.0,100.0,100.0,13.4,1505.2,328.7,-0.8,1.8,2471.025,13.28,0.036,317.2
2022-12-11T04:07:03,42.805,6.029,-0.021,-0.015,-0.057,101.0,101.0,100.0,13.3,1505.2,326.8,-0.7,1.8,2471.063,13.29,0.025,234.5
2022-12-11T04:10:03,42.805,6.029,-0.025,0.015,-0.031,100.0,100.0,101.0,13.4,1505.2,322.1,-0.7,1.8,2471.051,13.29,0.029,301.0
2022-12-11T04:13:03,42.805,6.029,-0.021,0.014,-0.033,101.0,100.0,100.0,13.4,1505.2,329.6,-0.8,1.8,2471.066,13.29,0.025,303.7
2022-12-11T04:16:03,42.805,6.029,-0.018,0.031,-0.014,101.0,101.0,100.0,13.4,1505.2,321.5,-0.8,1.8,2471.04,13.29,0.035,329.9
2022-12-11T04:19:03,42.805,6.029,-0.03,0.002,-0.05,101.0,100.0,101.0,13.3,1505.2,329.3,-0.8,1.8,2471.017,13.29,0.03,273.8
2022-12-11T04:22:03,42.805,6.029,-0.031,0.021,-0.034,101.0,100.0,100.0,13.4,1505.2,332.3,-0.8,1.8,2471.047,13.29,0.037,304.1
2022-12-11T04:25:03,42.805,6.029,-0.017,0.013,-0.005,100.0,100.0,101.0,13.4,1505.2,319.3,-0.8,1.8,2471.044,13.29,0.021,307.4
2022-12-11T04:28:03,42.805,6.029,-0.008,0.018,0.013,99.0,101.0,100.0,13.4,1505.2,323.1,-0.8,1.8,2471.037,13.29,0.019,336.0
2022-12-11T04:31:03,42.805,6.029,-0.026,-0.005,-0.028,100.0,100.0,100.0,13.4,1505.2,320.1,-0.8,1.8,2471.059,13.29,0.026,259.1
2022-12-11T04:34:03,42.805,6.029,-0.032,-0.002,-0.048,101.0,99.0,100.0,13.3,1505.2,320.3,-0.7,1.8,2471.072,13.29,0.032,266.4
2022-12-11T04:37:03,42.805,6.029,-0.039,0.04,0.025,101.0,100.0,100.0,13.3,1505.2,318.1,-0.8,1.8,2471.056,13.29,0.055,315.7
2022-12-11T04:40:03,42.805,6.029,-0.019,0.0,-0.036,100.0,100.0,100.0,13.4,1505.2,333.4,-0.7,1.8,2471.055,13.29,0.019,270.0
2022-12-11T04:43:03,42.805,6.029,0.004,-0.02,-0.047,99.0,100.0,100.0,13.3,1505.2,316.4,-0.7,1.8,2471.033,13.29,0.02,168.7
2022-12-11T04:46:03,42.805,6.029,-0.041,0.024,-0.052,100.0,100.0,100.0,13.4,1505.2,329.1,-0.8,1.8,2471.048,13.29,0.047,300.3
2022-12-11T04:49:03,42.805,6.029,-0.026,0.002,-0.039,100.0,101.0,100.0,13.4,1505.2,329.4,-0.8,1.9,2471.077,13.29,0.026,274.4
2022-12-11T04:52:03,42.805,6.029,-0.007,0.012,-0.012,100.0,100.0,100.0,13.3,1505.2,320.7,-0.8,1.8,2471.07,13.29,0.013,329.7
2022-12-11T04:55:03,42.805,6.029,-0.026,-0.009,-0.046,100.0,101.0,100.0,13.4,1505.2,330.8,-0.8,1.8,2471.085,13.29,0.027,250.9
2022-12-11T04:58:03,42.805,6.029,-0.04,0.003,-0.032,100.0,103.0,101.0,13.3,1505.2,320.7,-0.8,1.8,2471.07,13.29,0.04,274.3
2022-12-11T05:04:03,42.805,6.029,-0.011,0.0,-0.024,99.0,100.0,103.0,13.3,1505.2,318.0,-0.8,1.8,2471.144,13.28,0.011,270.0
2022-12-11T05:07:03,42.805,6.029,-0.022,-0.006,-0.071,99.0,99.0,101.0,13.4,1505.2,316.9,-0.8,1.8,2471.126,13.28,0.022,254.7
2022-12-11T05:10:03,42.805,6.029,-0.005,0.015,-0.012,99.0,100.0,101.0,13.4,1505.2,334.2,-0.8,1.8,2471.122,13.29,0.015,341.6
2022-12-11T05:13:03,42.805,6.029,-0.01,0.017,-0.012,100.0,99.0,101.0,13.4,1505.2,333.4,-0.7,1.8,2471.079,13.29,0.019,329.5
2022-12-11T05:16:03,42.805,6.029,-0.014,-0.019,-0.078,102.0,100.0,99.0,13.4,1505.2,329.7,-0.8,1.8,2471.056,13.29,0.023,216.4
2022-12-11T05:19:03,42.805,6.029,0.007,0.021,0.021,100.0,101.0,102.0,13.3,1505.2,319.0,-0.8,1.8,2471.097,13.29,0.022,18.4
2022-12-11T05:22:03,42.805,6.029,-0.028,0.001,-0.05,100.0,100.0,100.0,13.4,1505.2,323.2,-0.8,1.8,2471.066,13.29,0.028,272.0
2022-12-11T05:25:03,42.805,6.029,-0.018,-0.007,-0.074,99.0,100.0,100.0,13.4,1505.2,329.7,-0.8,1.8,2471.093,13.29,0.019,248.8
2022-12-11T05:28:03,42.805,6.029,-0.012,0.007,-0.043,101.0,102.0,100.0,13.3,1505.2,320.5,-0.8,1.8,2471.066,13.29,0.013,300.3
2022-12-11T05:31:03,42.805,6.029,-0.042,0.004,-0.033,100.0,100.0,100.0,13.3,1505.2,321.5,-0.8,1.8,2471.04,13.29,0.042,275.4
2022-12-11T05:34:03,42.805,6.029,-0.039,0.016,-0.013,100.0,100.0,100.0,13.3,1505.2,325.7,-0.7,1.8,2471.109,13.29,0.042,292.3
2022-12-11T05:37:03,42.805,6.029,-0.038,0.021,-0.045,100.0,99.0,101.0,13.3,1505.2,327.7,-0.8,1.8,2471.106,13.29,0.043,298.9
2022-12-11T05:40:03,42.805,6.029,-0.028,0.017,-0.032,101.0,100.0,100.0,13.3,1505.2,328.7,-0.8,1.8,2471.111,13.29,0.032,301.3
2022-12-11T05:43:03,42.805,6.029,-0.035,0.039,-0.015,100.0,100.0,100.0,13.4,1505.2,335.6,-0.8,1.8,2471.124,13.29,0.052,318.1
2022-12-11T05:46:03,42.805,6.029,-0.035,0.028,-0.013,101.0,99.0,101.0,13.3,1505.2,329.5,-0.8,1.8,2471.071,13.29,0.044,308.7
2022-12-11T05:49:03,42.805,6.029,-0.025,0.005,-0.052,101.0,100.0,99.0,13.4,1505.2,333.0,-0.8,1.8,2471.103,13.29,0.025,281.3
2022-12-11T05:52:03,42.805,6.029,-0.033,0.027,0.006,101.0,100.0,100.0,13.4,1505.2,329.0,-0.8,1.8,2471.069,13.29,0.042,309.3
2022-12-11T05:55:03,42.805,6.029,-0.038,0.009,-0.033,100.0,100.0,100.0,13.3,1505.2,329.4,-0.7,1.9,2471.096,13.29,0.039,283.3
2022-12-11T05:58:03,42.805,6.029,-0.044,0.017,-0.02,100.0,100.0,100.0,13.4,1505.2,334.4,-0.8,1.8,2471.094,13.29,0.047,291.1
2022-12-11T06:04:03,42.805,6.029,-0.015,0.021,-0.018,99.0,101.0,100.0,13.4,1505.2,329.1,-0.7,1.9,2471.146,13.28,0.025,324.5
2022-12-11T06:07:03,42.805,6.029,-0.003,0.011,-0.02,101.0,101.0,99.0,13.4,1505.2,333.0,-0.8,1.8,2471.141,13.29,0.011,344.7
2022-12-11T06:10:03,42.805,6.029,-0.023,0.013,0.0,101.0,98.0,101.0,13.4,1505.2,329.4,-0.8,1.8,2471.121,13.29,0.026,299.5
2022-12-11T06:13:03,42.805,6.029,-0.041,0.051,-0.022,100.0,101.0,100.0,13.3,1505.2,329.0,-0.8,1.8,2471.156,13.29,0.065,321.2
2022-12-11T06:16:03,42.805,6.029,-0.045,0.031,-0.013,100.0,100.0,100.0,13.3,1505.2,323.2,-0.8,1.8,2471.165,13.29,0.054,304.6
2022-12-11T06:19:03,42.805,6.029,-0.019,0.008,-0.012,100.0,100.0,100.0,13.3,1505.2,332.4,-0.8,1.8,2471.137,13.29,0.02,292.8
2022-12-11T06:22:03,42.805,6.029,-0.04,0.0,-0.023,100.0,101.0,100.0,13.3,1505.2,319.9,-0.8,1.8,2471.133,13.29,0.04,270.0
2022-12-11T06:25:03,42.805,6.029,-0.013,0.01,-0.025,103.0,100.0,101.0,13.4,1505.2,321.5,-0.8,1.8,2471.118,13.29,0.016,307.6
2022-12-11T06:28:03,42.805,6.029,-0.011,0.006,-0.032,100.0,101.0,100.0,13.4,1505.2,320.9,-0.8,1.8,2471.108,13.29,0.012,298.6
2022-12-11T06:31:03,42.805,6.029,-0.003,0.011,-0.022,101.0,100.0,100.0,13.4,1505.2,330.6,-0.8,1.8,2471.119,13.29,0.011,344.7
2022-12-11T06:34:03,42.805,6.029,-0.014,0.011,-0.027,101.0,99.0,100.0,13.4,1505.2,321.0,-0.8,1.8,2471.127,13.29,0.017,308.2
2022-12-11T06:37:03,42.805,6.029,-0.023,0.003,-0.024,100.0,100.0,100.0,13.4,1505.2,329.4,-0.8,1.8,2471.147,13.29,0.023,277.4
2022-12-11T06:40:03,42.805,6.029,-0.019,0.022,-0.026,98.0,103.0,102.0,13.4,1505.2,333.7,-0.7,1.8,2471.148,13.29,0.029,319.2
2022-12-11T06:43:03,42.805,6.029,-0.039,0.007,-0.031,101.0,100.0,100.0,13.3,1505.2,321.2,-0.7,1.8,2471.142,13.29,0.039,280.2
2022-12-11T06:46:03,42.805,6.029,-0.021,0.019,-0.033,100.0,100.0,100.0,13.4,1505.2,325.1,-0.8,1.8,2471.125,13.29,0.028,312.1
2022-12-11T06:49:03,42.805,6.029,-0.038,0.013,-0.043,100.0,100.0,100.0,13.4,1505.2,332.6,-0.7,1.8,2471.133,13.29,0.04,288.9
2022-12-11T06:52:03,42.805,6.029,-0.032,0.025,-0.038,100.0,101.0,100.0,13.4,1505.2,323.5,-0.7,1.8,2471.165,13.29,0.04,308.0
2022-12-11T06:55:03,42.805,6.029,-0.052,0.011,-0.061,100.0,101.0,100.0,13.3,1505.2,321.5,-0.8,1.9,2471.124,13.29,0.053,281.9
2022-12-11T06:58:03,42.805,6.029,-0.006,-0.013,-0.064,100.0,101.0,100.0,13.4,1505.2,322.2,-0.8,1.8,2471.104,13.29,0.014,204.8
2022-12-11T07:04:03,42.805,6.029,-0.024,0.019,-0.023,101.0,101.0,99.0,13.3,1505.2,329.1,-0.8,1.8,2471.181,13.28,0.03,308.4
2022-12-11T07:07:03,42.805,6.029,-0.017,0.0,-0.02,100.0,100.0,101.0,13.4,1505.2,322.4,-0.8,1.8,2471.225,13.29,0.017,270.0
2022-12-11T07:10:03,42.805,6.029,-0.029,0.005,-0.024,100.0,100.0,101.0,13.3,1505.2,317.6,-0.8,1.8,2471.2,13.29,0.029,279.8
2022-12-11T07:13:03,42.805,6.029,0.003,0.003,-0.022,99.0,100.0,101.0,13.4,1505.2,334.9,-0.8,1.8,2471.187,13.29,0.004,45.0
2022-12-11T07:16:03,42.805,6.029,-0.023,0.004,-0.032,98.0,101.0,101.0,13.3,1505.2,327.9,-0.8,1.8,2471.194,13.29,0.023,279.9
2022-12-11T07:19:03,42.805,6.029,-0.031,0.029,0.009,101.0,101.0,99.0,13.4,1505.2,319.2,-0.7,1.8,2471.221,13.29,0.042,313.1
2022-12-11T07:22:03,42.805,6.029,-0.025,0.036,-0.002,100.0,100.0,100.0,13.3,1505.2,322.3,-0.7,1.8,2471.183,13.29,0.043,325.2
2022-12-11T07:25:03,42.805,6.029,0.001,0.008,0.003,101.0,98.0,100.0,13.3,1505.2,330.0,-0.7,1.8,2471.181,13.29,0.008,7.1
2022-12-11T07:28:03,42.805,6.029,-0.034,-0.003,-0.056,100.0,101.0,100.0,13.3,1505.2,333.0,-0.7,1.8,2471.219,13.29,0.034,265.0
2022-12-11T07:31:03,42.805,6.029,-0.004,0.017,-0.023,100.0,102.0,101.0,13.4,1505.2,332.6,-0.7,1.8,2471.22,13.29,0.017,346.8
2022-12-11T07:34:03,42.805,6.029,-0.011,0.015,-0.017,100.0,99.0,101.0,13.3,1505.2,326.7,-0.7,1.8,2471.183,13.29,0.018,323.7
2022-12-11T07:37:03,42.805,6.029,-0.023,0.036,0.01,99.0,101.0,99.0,13.4,1505.2,319.2,-0.8,1.8,2471.202,13.29,0.042,327.4
2022-12-11T07:40:03,42.805,6.029,-0.026,0.016,-0.003,100.0,101.0,100.0,13.3,1505.2,322.6,-0.8,1.8,2471.199,13.29,0.03,301.6
2022-12-11T07:43:03,42.805,6.029,-0.058,0.016,-0.033,99.0,101.0,102.0,13.3,1505.2,322.6,-0.8,1.8,2471.215,13.29,0.06,285.4
2022-12-11T07:46:03,42.805,6.029,-0.019,0.013,-0.011,99.0,99.0,101.0,13.4,1505.2,326.9,-0.8,1.8,2471.2,13.29,0.023,304.4
2022-12-11T07:49:03,42.805,6.029,-0.018,0.009,-0.03,101.0,101.0,100.0,13.4,1505.2,329.8,-0.8,1.9,2471.198,13.29,0.02,296.6
2022-12-11T07:52:03,42.805,6.029,-0.026,0.012,-0.048,101.0,100.0,101.0,13.4,1505.2,324.7,-0.8,1.8,2471.229,13.29,0.028,294.8
2022-12-11T07:55:03,42.805,6.029,-0.032,0.038,0.021,100.0,101.0,100.0,13.3,1505.2,326.5,-0.8,1.8,2471.187,13.29,0.049,319.9
2022-12-11T07:58:03,42.805,6.029,-0.025,0.017,-0.038,100.0,100.0,100.0,13.4,1505.2,315.9,-0.8,1.8,2471.252,13.29,0.03,304.2
2022-12-11T08:04:03,42.805,6.029,-0.018,-0.013,-0.064,99.0,100.0,101.0,13.4,1505.2,321.2,-0.8,1.8,2471.243,13.29,0.022,234.2
2022-12-11T08:07:03,42.805,6.029,-0.036,-0.005,-0.055,101.0,100.0,100.0,13.4,1505.2,318.8,-0.7,1.8,2471.247,13.29,0.036,262.1
2022-12-11T08:10:03,42.805,6.029,-0.021,0.028,-0.01,98.0,99.0,101.0,13.4,1505.2,334.8,-0.8,1.8,2471.241,13.29,0.035,323.1
2022-12-11T08:13:07,42.805,6.029,-0.043,0.013,-0.034,101.0,98.0,100.0,13.4,1505.2,321.5,-0.8,1.8,2471.2,13.29,0.044,286.8
2022-12-11T08:16:03,42.805,6.029,-0.014,0.011,-0.018,100.0,99.0,100.0,13.3,1505.2,323.1,-0.7,1.8,2471.227,13.29,0.017,308.2
2022-12-11T08:19:03,42.805,6.029,-0.016,0.011,-0.003,101.0,99.0,100.0,13.4,1505.2,325.4,-0.8,1.8,2471.234,13.29,0.019,304.5
2022-12-11T08:22:03,42.805,6.029,-0.021,0.001,-0.028,100.0,100.0,100.0,13.3,1505.2,323.1,-0.8,1.8,2471.197,13.29,0.021,272.7
2022-12-11T08:25:03,42.805,6.029,-0.024,-0.006,-0.038,99.0,100.0,100.0,13.4,1505.2,316.9,-0.8,1.8,2471.244,13.29,0.024,256.0
2022-12-11T08:28:06,42.805,6.029,-0.036,0.019,-0.041,98.0,100.0,100.0,13.4,1505.2,322.1,-0.7,1.8,2471.23,13.29,0.04,297.8
2022-12-11T08:31:03,42.805,6.029,-0.02,0.013,-0.042,99.0,100.0,101.0,13.3,1505.2,332.2,-0.8,1.8,2471.239,13.29,0.023,303.0
2022-12-11T08:34:03,42.805,6.029,-0.029,0.009,-0.022,101.0,98.0,101.0,13.4,1505.2,323.8,-0.7,1.8,2471.219,13.29,0.03,287.2
2022-12-11T08:37:03,42.805,6.029,-0.021,0.009,-0.049,100.0,100.0,101.0,13.4,1505.2,320.1,-0.8,1.8,2471.226,13.29,0.022,293.2
2022-12-11T08:40:03,42.805,6.029,-0.045,0.021,-0.049,101.0,100.0,98.0,13.4,1505.2,328.1,-0.8,1.8,2471.231,13.29,0.049,295.0
2022-12-11T08:43:03,42.805,6.029,-0.023,-0.005,-0.039,100.0,100.0,100.0,13.4,1505.2,326.1,-0.8,1.8,2471.232,13.29,0.023,257.7
2022-12-11T08:46:03,42.805,6.029,-0.024,-0.014,-0.059,100.0,99.0,100.0,13.4,1505.2,333.4,-0.7,1.8,2471.257,13.29,0.027,239.7
2022-12-11T08:49:03,42.805,6.029,-0.012,-0.007,-0.042,99.0,100.0,100.0,13.4,1505.2,331.0,-0.8,1.8,2471.246,13.29,0.013,239.7
2022-12-11T08:52:03,42.805,6.029,-0.024,0.001,-0.031,99.0,100.0,100.0,13.4,1505.2,317.4,-0.8,1.8,2471.215,13.29,0.024,272.4
2022-12-11T08:55:03,42.805,6.029,-0.011,0.007,-0.025,100.0,100.0,99.0,13.4,1505.2,322.1,-0.7,1.8,2471.216,13.29,0.013,302.5
2022-12-11T08:58:03,42.805,6.029,-0.031,0.028,-0.016,100.0,99.0,100.0,13.3,1505.2,324.2,-0.8,1.8,2471.236,13.29,0.041,312.1
2022-12-11T09:04:03,42.805,6.029,-0.006,0.012,-0.007,99.0,99.0,100.0,13.3,1505.2,333.4,-0.7,1.8,2471.303,13.29,0.013,333.4
2022-12-11T09:07:03,42.805,6.029,-0.038,0.013,-0.015,100.0,100.0,101.0,13.4,1505.2,319.8,-0.8,1.9,2471.262,13.29,0.04,288.9
2022-12-11T09:10:03,42.805,6.029,0.004,0.013,-0.015,100.0,101.0,100.0,13.4,1505.2,320.1,-0.8,1.8,2471.294,13.29,0.013,17.1
2022-12-11T09:13:03,42.805,6.029,-0.029,0.021,-0.01,99.0,100.0,100.0,13.3,1505.2,329.0,-0.7,1.8,2471.258,13.29,0.035,305.9
2022-12-11T09:16:03,42.805,6.029,-0.043,0.008,-0.047,100.0,99.0,101.0,13.3,1505.2,320.6,-0.8,1.8,2471.219,13.29,0.043,280.5
2022-12-11T09:19:03,42.805,6.029,0.0,0.005,-0.013,100.0,100.0,100.0,13.3,1505.2,324.1,-0.8,1.8,2471.251,13.29,0.005,0.0
2022-12-11T09:22:03,42.805,6.029,-0.013,0.009,-0.021,100.0,101.0,100.0,13.4,1505.2,321.6,-0.7,1.8,2471.242,13.29,0.015,304.7
2022-12-11T09:25:03,42.805,6.029,-0.021,0.011,-0.048,99.0,101.0,101.0,13.3,1505.2,323.1,-0.8,1.8,2471.23,13.29,0.023,297.6
2022-12-11T09:28:03,42.805,6.029,-0.021,0.014,-0.031,101.0,100.0,99.0,13.4,1505.2,333.0,-0.7,1.8,2471.256,13.29,0.025,303.7
2022-12-11T09:31:03,42.805,6.029,-0.019,0.021,-0.042,98.0,102.0,100.0,13.4,1505.2,329.0,-0.7,1.8,2471.235,13.29,0.028,317.9
2022-12-11T09:34:03,42.805,6.029,-0.004,-0.019,-0.048,99.0,101.0,101.0,13.3,1505.2,328.9,-0.8,1.8,2471.24,13.29,0.019,191.9
2022-12-11T09:37:03,42.805,6.029,-0.028,0.017,-0.063,99.0,100.0,99.0,13.4,1505.2,327.6,-0.8,1.8,2471.271,13.29,0.032,301.3
2022-12-11T09:40:03,42.805,6.029,-0.024,0.01,-0.02,101.0,98.0,100.0,13.4,1505.2,322.2,-0.8,1.8,2471.24,13.29,0.026,292.6
2022-12-11T09:43:03,42.805,6.029,-0.018,0.0,-0.037,100.0,100.0,100.0,13.4,1505.2,319.7,-0.8,1.8,2471.233,13.29,0.018,270.0
2022-12-11T09:46:03,42.805,6.029,-0.006,0.021,-0.014,98.0,101.0,100.0,13.3,1505.2,327.1,-0.8,1.8,2471.228,13.29,0.021,344.1
2022-12-11T09:49:03,42.805,6.029,-0.025,0.04,0.014,99.0,99.0,100.0,13.3,1505.2,336.0,-0.8,1.8,2471.208,13.29,0.047,328.0
2022-12-11T09:52:03,42.805,6.029,-0.033,0.004,-0.031,99.0,100.0,100.0,13.4,1505.2,328.9,-0.8,1.8,2471.255,13.29,0.033,276.9
2022-12-11T09:55:03,42.805,6.029,-0.054,-0.004,-0.051,100.0,99.0,100.0,13.4,1505.2,320.5,-0.8,1.8,2471.229,13.29,0.054,265.8